TimeHST,TemperatureF,Dew PointF,Humidity,Sea Level PressureIn,VisibilityMPH,Wind Direction,Wind SpeedMPH,Gust SpeedMPH,PrecipitationIn,Events,Conditions,WindDirDegrees,DateUTC
12:01 AM,75.2,73.4,94,30.01,5.0,WSW,4.6,-,N/A,,Overcast,250,2013-10-27 10:01:00
12:53 AM,75.0,73.0,94,29.99,6.0,SSW,4.6,-,N/A,,Overcast,210,2013-10-27 10:53:00
1:28 AM,75.2,73.4,94,30.00,7.0,SW,3.5,-,N/A,,Mostly Cloudy,220,2013-10-27 11:28:00
1:53 AM,75.0,72.0,90,29.99,7.0,SSW,3.5,-,N/A,,Mostly Cloudy,210,2013-10-27 11:53:00
2:08 AM,75.2,71.6,89,29.99,7.0,West,5.8,-,N/A,,Mostly Cloudy,270,2013-10-27 12:08:00
2:43 AM,75.2,71.6,89,29.98,6.0,West,5.8,-,N/A,,Mostly Cloudy,280,2013-10-27 12:43:00
2:53 AM,75.0,72.0,90,29.97,7.0,WNW,3.5,-,N/A,,Overcast,290,2013-10-27 12:53:00
3:35 AM,73.4,71.6,94,29.97,7.0,WSW,3.5,-,N/A,,Mostly Cloudy,250,2013-10-27 13:35:00
3:53 AM,75.0,72.0,90,29.96,8.0,West,3.5,-,N/A,,Mostly Cloudy,280,2013-10-27 13:53:00
4:00 AM,75.2,71.6,89,29.96,8.0,West,3.5,-,N/A,,Mostly Cloudy,260,2013-10-27 14:00:00
4:53 AM,75.0,72.0,90,29.96,9.0,SW,4.6,-,N/A,,Mostly Cloudy,220,2013-10-27 14:53:00
5:53 AM,75.0,73.0,94,29.97,10.0,West,3.5,-,N/A,,Scattered Clouds,270,2013-10-27 15:53:00
6:53 AM,73.9,72.0,93,29.99,10.0,West,5.8,-,N/A,,Partly Cloudy,270,2013-10-27 16:53:00
7:53 AM,77.0,73.9,90,30.01,10.0,WSW,4.6,-,N/A,,Partly Cloudy,250,2013-10-27 17:53:00
8:53 AM,81.0,73.9,79,30.02,10.0,SSW,5.8,-,N/A,,Partly Cloudy,200,2013-10-27 18:53:00
9:53 AM,82.0,73.0,74,30.04,10.0,South,6.9,-,N/A,,Clear,190,2013-10-27 19:53:00
10:53 AM,82.9,73.9,74,30.02,10.0,South,10.4,-,N/A,,Clear,180,2013-10-27 20:53:00
11:53 AM,82.9,73.9,74,30.00,10.0,South,11.5,-,N/A,,Clear,170,2013-10-27 21:53:00
12:53 PM,82.9,73.0,72,29.98,10.0,South,12.7,-,N/A,,Clear,180,2013-10-27 22:53:00
1:53 PM,82.9,73.9,74,29.96,10.0,South,11.5,-,N/A,,Clear,170,2013-10-27 23:53:00
2:53 PM,82.0,72.0,71,29.95,10.0,South,12.7,-,N/A,,Scattered Clouds,180,2013-10-28 00:53:00
3:27 PM,82.4,73.4,74,29.97,10.0,WNW,10.4,-,N/A,,Mostly Cloudy,300,2013-10-28 01:27:00
3:53 PM,81.0,72.0,74,29.96,10.0,WNW,8.1,-,N/A,,Mostly Cloudy,290,2013-10-28 01:53:00
4:53 PM,81.0,72.0,74,29.96,10.0,Calm,Calm,-,N/A,,Scattered Clouds,0,2013-10-28 02:53:00
5:53 PM,80.1,72.0,76,29.98,10.0,NNW,3.5,-,N/A,,Mostly Cloudy,340,2013-10-28 03:53:00
6:53 PM,79.0,72.0,79,29.99,10.0,NNW,4.6,-,N/A,,Clear,340,2013-10-28 04:53:00
7:53 PM,77.0,73.0,88,30.02,10.0,WNW,3.5,-,N/A,,Mostly Cloudy,300,2013-10-28 05:53:00
8:53 PM,75.9,72.0,87,30.04,10.0,West,5.8,-,N/A,,Clear,280,2013-10-28 06:53:00
9:53 PM,75.0,72.0,90,30.04,10.0,West,5.8,-,N/A,,Clear,280,2013-10-28 07:53:00
10:53 PM,75.0,71.1,87,30.04,10.0,West,5.8,-,N/A,,Clear,270,2013-10-28 08:53:00
11:53 PM,75.0,71.1,87,30.03,10.0,WNW,6.9,-,N/A,,Clear,290,2013-10-28 09:53:00